Location: Caltech
(34.1382°N, 118.1253°W)
Time: 21:27:29
(UTC-07:00)

Daily predictions for brighter satellites

Satellite Brightness Start Highest point End
(mag) Time Altitude Azimuth Time Altitude Azimuth Time Altitude Azimuth
Cosmos 1536 2.8 19:46:14 10° S 19:50:10 62° E 19:54:07 10° NNE
Meteor 1-29 3.1 19:48:01 10° N 19:51:28 82° WNW 19:54:55 10° SSW
Meteor 1-28 Rocket 4.3 19:47:59 10° N 19:51:42 50° WNW 19:55:22 10° SSW
Okean 1-7 Rocket 3.7 19:48:01 10° N 19:52:25 83° W 19:56:48 10° S
NOSS 2-1 (D) 3.3 19:49:49 10° SSW 19:53:38 90° E 19:57:46 10° NNE
Cosmos 1346 Rocket 4.4 19:51:28 10° NNE 19:54:06 17° ENE 19:56:44 10° ESE
NOSS 2-1 (C) 3.3 19:50:49 10° SSW 19:54:40 89° E 19:58:49 10° NNE
GOES 2 Rocket 4.1 19:51:43 10° WSW 19:55:27 32° S 19:59:24 10° SE
Cosmos 1821 Rocket 4.1 19:50:00 10° SSE 19:55:55 53° E 20:01:48 10° NNE
Centaur D-1A AC-32 3.4 20:04:20 10° WSW 20:09:06 28° S 20:11:41 12° SE
ALOS 2.5 20:05:33 10° SSE 20:10:04 52° ENE 20:14:37 10° N
Cosmos 2227 Rocket 3.4 20:05:50 10° N 20:10:23 24° ENE 20:14:14 13° ESE
HJ-1C 4.3 20:07:26 10° S 20:10:36 49° W 20:13:48 10° NNW
NOSS 2-1 (E) 3.8 20:06:50 10° SW 20:10:39 64° WNW 20:14:52 10° NNE
Meteor 1-5 Rocket 4.1 20:07:38 10° S 20:12:47 57° E 20:18:05 10° NNE
FENGYUN 3A 3.8 20:08:28 10° SSE 20:13:41 57° ENE 20:18:55 10° N
Meteor 1-19 Rocket 4.4 20:08:17 10° N 20:13:56 81° W 20:19:29 10° S
Helios 1B rocket 4.4 20:11:55 10° N 20:15:39 34° WNW 20:19:23 10° SW
Cosmos 1777 Rocket 4.1 20:16:32 10° N 20:21:44 62° ENE 20:26:56 10° SSE
Helios 1A 4.5 20:21:57 10° SSW 20:25:48 38° W 20:29:43 10° NNW
Cosmos 2297 Rocket 3.5 20:21:46 10° N 20:26:13 23° ENE 20:28:59 17° E
H-2A R/B 4.1 20:26:32 11° ENE 20:26:54 11° ENE 20:27:58 10° NE
Cosmos 2208 Rocket 4.0 20:23:52 10° S 20:29:08 79° ESE 20:34:31 10° NNE
Cosmos 2123 Rocket 4.0 20:25:14 10° N 20:31:19 58° E 20:37:21 10° SSE
Cosmos 1892 Rocket 3.5 20:27:41 10° N 20:32:11 86° E 20:36:40 10° S
Okean 2 3.3 20:28:43 10° N 20:32:54 74° E 20:37:01 10° S
Cosmos 1975 3.5 20:30:59 13° SSE 20:34:11 35° E 20:37:56 10° NNE
Cosmos 1455 Rocket 2.9 20:30:09 10° S 20:34:27 84° E 20:38:49 10° N
ATLAS 3B CENTAUR R/B 2.0 20:34:32 10° SW 20:35:21 14° SSW 20:35:21 14° SSW
Cosmos 1025 Rocket 4.1 20:32:56 10° NNW 20:37:07 47° W 20:41:15 10° SSW
Cosmos 1602 Rocket 4.2 20:38:00 10° NNE 20:42:05 35° E 20:43:33 27° ESE
Meteor 2-15 4.4 20:36:26 10° N 20:42:31 89° E 20:48:34 10° S
Resurs 01 Rocket 3.9 20:42:24 10° SSW 20:45:58 24° W 20:49:33 10° NW
Tiangong 1 3.5 20:44:15 10° NW 20:46:29 18° N 20:48:43 10° NE
Meteor 2-15 Rocket 4.3 20:41:19 10° N 20:47:26 82° E 20:53:29 10° S
CZ-4 DEB 3.2 20:47:39 39° E 20:47:47 39° ENE 20:50:45 10° N
Lacrosse 5 rocket 3.0 20:46:02 10° N 20:48:26 16° NE 20:49:06 16° NE
Cosmos 1461 3.6 20:45:44 10° N 20:49:26 33° ENE 20:50:13 30° E
USA 186 2.1 20:47:14 16° S 20:49:38 61° W 20:52:39 10° NNW
Envisat 3.6 20:51:27 29° ESE 20:53:04 37° ENE 20:57:41 10° N
NOSS 3-4 (A) 3.8 20:46:29 10° NNW 20:53:36 72° ENE 20:58:16 25° SE
NOSS 3-4 (C) 3.8 20:46:36 10° NNW 20:53:43 71° ENE 20:58:21 25° SE
Cosmos 1153 Rocket 4.4 20:48:13 10° S 20:54:21 63° E 21:00:25 10° NNE
OTV 4 1.3 20:52:05 10° WNW 20:54:55 41° N 20:55:25 37° NE
H-2A R/B 3.8 20:54:54 10° S 20:58:34 44° W 21:02:19 10° NNW
Meteor 1-12 Rocket 4.2 20:54:20 10° S 21:00:01 86° E 21:05:50 10° N
Cosmos 1697 Rocket 2.9 20:56:52 10° S 21:02:14 46° ESE 21:07:36 10° NE
Cosmos 2278 4.3 20:56:41 10° SSW 21:02:16 59° WNW 21:07:54 10° NNE
Cosmos 1939 Rocket 3.1 21:04:26 48° E 21:04:53 50° ENE 21:08:55 10° N
DELTA 2 R/B (1) 4.2 21:02:24 10° WNW 21:07:49 50° N 21:10:33 27° ENE
Delta 2 Rocket 3.8 21:04:47 10° WNW 21:10:21 89° S 21:11:50 47° ESE
Cosmos 1447 Rocket 4.4 21:05:59 10° N 21:12:18 71° E 21:15:36 30° SSE
Cosmos 220 Rocket 4.2 21:08:21 10° N 21:12:20 47° ENE 21:12:20 47° ENE
SJ-11-01 4.2 21:15:06 37° S 21:16:57 83° WSW 21:21:39 10° NNW
Iridium 4 Rocket 3.3 21:12:08 10° N 21:17:14 87° W 21:19:13 36° S
OAO 2 Rocket 3.2 21:15:42 10° WSW 21:20:46 87° S 21:21:56 55° E
Hubble Space Telescope 2.4 21:20:20 10° WSW 21:23:04 24° SSW 21:23:04 24° SSW
Cosmos 1980 Rocket 3.1 21:25:46 32° ENE 21:25:46 32° ENE 21:29:13 10° NE
Cosmos 2016 Rocket 4.2 21:28:04 46° E 21:28:04 46° E 21:33:52 10° NNE
ERS-1 Rocket 3.1 21:27:33 39° S 21:29:22 70° WSW 21:34:23 10° NNW
ARGOS 4.3 21:31:03 27° NE 21:31:03 27° NE 21:34:48 10° NNE
Cosmos 1898 Rocket 3.6 21:30:03 10° N 21:35:11 59° ENE 21:35:11 59° ENE
RESURS DK-1 4.3 21:33:25 10° N 21:35:13 19° NNE 21:35:13 19° NNE
Cosmos 2173 Rocket 3.9 21:38:27 40° S 21:40:58 85° E 21:47:20 10° N
Cosmos 1500 4.4 21:44:14 40° WNW 21:44:14 40° WNW 21:47:37 10° N
Cosmos 2061 Rocket 4.0 21:45:33 41° S 21:47:58 85° W 21:54:17 10° N
CZ-3C R/B 3.6 21:22:34 10° W 21:48:47 34° SSW 21:51:10 30° S
Cosmos 2100 Rocket 4.1 21:46:39 30° SSW 21:49:54 74° W 21:56:10 10° N
MetOp-B 4.1 21:51:33 70° NNE 21:51:33 70° NNE 21:56:28 10° N
Cosmos 2227 Rocket 3.2 21:49:17 10° NW 21:54:31 40° WSW 21:56:06 33° SW
H-2A R/B 3.4 22:03:40 36° NW 22:03:40 36° NW 22:06:25 10° NNW
Cosmos 2297 Rocket 3.0 22:05:06 10° NW 22:10:23 42° WSW 22:10:49 41° WSW
SPOT 5 3.6 22:11:02 53° WNW 22:11:02 53° WNW 22:15:18 10° NNW
Lacrosse 5 3.2 22:06:39 10° NNW 22:09:59 33° N 22:09:59 33° N
USA 215 4.0 22:16:43 40° NE 22:17:02 40° NE 22:23:02 10° NNW
Cosmos 1725 Rocket 4.4 22:26:54 55° N 22:26:54 55° N 22:31:41 10° N
Lacrosse 5 rocket 4.2 22:24:23 10° NW 22:24:50 13° WNW 22:24:50 13° WNW
H-2A R/B 3.8 22:31:30 23° N 22:31:30 23° N 22:33:26 10° N
Cosmos 2098 Rocket 4.4 22:36:06 66° WNW 22:36:06 66° WNW 22:42:19 10° N
SL-16 R/B 4.5 22:53:37 15° NNE 22:53:37 15° NNE 22:54:33 10° NNE
Terra 4.3 22:58:02 18° N 22:58:02 18° N 22:59:12 10° N
Milstar 3 Cent rocket 3.9 22:41:10 10° W 22:55:17 54° SW 22:55:17 54° SW
Cosmos 1980 Rocket 4.2 23:07:25 23° WNW 23:08:01 24° WNW 23:12:33 10° N
